CW7241 Weather Reports


Display with metric or nautical units.
time (UTC)temp
F
wind
direction
speed
MPH
gust
MPH
rain 1hr
in
rain 24hr
in
rain mn
in
humidity
%
barometer
mb
20190321072606 45 270 0.0 0.0 0.00 0.00 0.00 77 1013.4
20190321072106 45 270 0.0 0.0 0.00 0.00 0.00 76 1013.4
20190321071606 45 270 0.0 0.0 0.00 0.00 0.00 76 1013.5
20190321071106 45 270 0.0 4.0 0.00 0.00 0.00 75 1013.5
20190321070606 45 270 0.0 0.0 0.00 0.00 0.00 75 1013.6
20190321070106 45 270 0.0 0.0 0.00 0.00 0.00 74 1013.6
20190321065606 45 270 0.0 5.0 0.00 0.00 0.00 73 1013.7
20190321065106 45 270 0.0 1.0 0.00 0.00 0.00 73 1013.8
20190321064606 45 270 1.0 6.0 0.00 0.00 0.00 73 1013.8
20190321064106 45 270 6.0 6.0 0.00 0.00 0.00 73 1013.8
20190321063606 45 270 0.0 0.0 0.00 0.00 0.00 73 1013.8
20190321063106 46 270 0.0 3.0 0.00 0.00 0.00 72 1013.9
20190321062606 46 270 0.0 4.0 0.00 0.00 0.00 72 1013.8
20190321062106 46 270 0.0 5.0 0.00 0.00 0.00 71 1013.8
20190321061607 46 270 0.0 10.0 0.00 0.00 0.00 71 1013.9
20190321061106 46 270 4.0 8.0 0.00 0.00 0.00 70 1013.7
20190321060606 46 285 5.0 10.0 0.00 0.00 0.00 70 1013.6
20190321060106 46 300 3.0 10.0 0.00 0.00 0.00 69 1013.7
20190321055606 46 276 4.0 7.0 0.00 0.00 0.00 68 1013.7
20190321055106 46 267 5.0 7.0 0.00 0.00 0.00 66 1014.0
20190321054606 47 265 2.0 8.0 0.00 0.00 0.00 64 1013.8
20190321054106 47 255 3.0 5.0 0.00 0.00 0.00 63 1014.0
20190321053606 47 254 1.0 7.0 0.00 0.00 0.00 62 1013.9
20190321053106 47 240 2.0 10.0 0.00 0.00 0.00 61 1013.9
20190321052606 47 277 2.0 7.0 0.00 0.00 0.00 60 1013.8
20190321052106 47 284 4.0 10.0 0.00 0.00 0.00 59 1013.8
20190321051606 48 280 5.0 7.0 0.00 0.00 0.00 57 1013.8
20190321051106 48 294 6.0 12.0 0.00 0.00 0.00 55 1013.8
20190321050606 49 266 6.0 13.0 0.00 0.00 0.00 51 1013.8
20190321050106 49 273 5.0 11.0 0.00 0.00 0.00 48 1013.9
20190321045606 50 275 5.0 10.0 0.00 0.00 0.00 46 1013.9
20190321045106 51 275 4.0 12.0 0.00 0.00 0.00 44 1013.9
20190321044606 52 220 6.0 17.0 0.00 0.00 0.00 43 1013.7
20190321044106 52 175 9.0 15.0 0.00 0.00 0.00 42 1013.8
20190321043606 52 184 3.0 5.0 0.00 0.00 0.00 43 1013.8
20190321043106 53 183 0.0 7.0 0.00 0.00 0.00 41 1013.7
20190321042607 53 188 0.0 11.0 0.00 0.00 0.00 40 1013.7
20190321042106 53 259 0.0 15.0 0.00 0.00 0.00 39 1013.6
20190321041606 53 248 4.0 13.0 0.00 0.00 0.00 39 1013.6
20190321041106 53 220 7.0 15.0 0.00 0.00 0.00 40 1013.7
20190321040606 52 163 5.0 11.0 0.00 0.00 0.00 42 1013.8
20190321040106 52 191 4.0 14.0 0.00 0.00 0.00 43 1014.1
20190321035606 52 174 0.0 9.0 0.00 0.00 0.00 44 1014.2
20190321035106 52 200 5.0 10.0 0.00 0.00 0.00 44 1014.3
20190321034606 52 196 0.0 10.0 0.00 0.00 0.00 43 1014.3
20190321034106 52 185 4.0 11.0 0.00 0.00 0.00 43 1014.3
20190321033606 52 202 0.0 6.0 0.00 0.00 0.00 43 1014.3
20190321033106 52 213 5.0 7.0 0.00 0.00 0.00 44 1014.3
20190321032606 52 244 0.0 5.0 0.00 0.00 0.00 44 1014.3
20190321032106 52 240 0.0 6.0 0.00 0.00 0.00 43 1014.5
20190321031606 52 243 5.0 9.0 0.00 0.00 0.00 42 1014.6
20190321031106 52 185 0.0 7.0 0.00 0.00 0.00 42 1014.5
20190321030606 52 196 7.0 13.0 0.00 0.00 0.00 41 1014.6
20190321030106 53 237 5.0 9.0 0.00 0.00 0.00 41 1014.7
20190321025606 53 225 6.0 10.0 0.00 0.00 0.00 40 1014.7
20190321025106 53 241 6.0 10.0 0.00 0.00 0.00 40 1014.9
20190321024606 53 217 3.0 11.0 0.00 0.00 0.00 40 1014.9
20190321024106 53 210 5.0 12.0 0.00 0.00 0.00 40 1015.0
20190321023606 52 175 4.0 18.0 0.00 0.00 0.00 40 1015.0
20190321023106 52 204 3.0 13.0 0.00 0.00 0.00 40 1015.2
20190321022606 52 192 0.0 7.0 0.00 0.00 0.00 40 1015.1
20190321022106 52 183 0.0 0.0 0.00 0.00 0.00 39 1015.1
20190321021606 52 183 0.0 4.0 0.00 0.00 0.00 39 1014.9
20190321021106 52 183 0.0 7.0 0.00 0.00 0.00 40 1015.0
20190321020606 52 211 2.0 7.0 0.00 0.00 0.00 40 1015.0
20190321020106 52 250 8.0 11.0 0.00 0.00 0.00 39 1015.4
20190321015606 52 204 0.0 6.0 0.00 0.00 0.00 39 1015.5
20190321015106 51 200 0.0 11.0 0.00 0.00 0.00 39 1015.4
20190321014606 51 260 6.0 12.0 0.00 0.00 0.00 41 1015.5
20190321014106 50 166 0.0 7.0 0.00 0.00 0.00 37 1015.6
20190321013606 50 150 4.0 8.0 0.00 0.00 0.00 38 1015.6
20190321013106 49 183 0.0 0.0 0.00 0.00 0.00 40 1015.7
20190321012606 49 183 0.0 0.0 0.00 0.00 0.00 41 1015.5
20190321012106 49 183 0.0 0.0 0.00 0.00 0.00 38 1015.4
20190321011607 49 183 0.0 0.0 0.00 0.00 0.00 38 1015.3
20190321011106 49 183 0.0 0.0 0.00 0.00 0.00 39 1015.2
20190321010606 50 183 0.0 0.0 0.00 0.00 0.00 40 1015.1
20190321010106 50 183 0.0 0.0 0.00 0.00 0.00 39 1015.3
20190321005606 50 183 0.0 0.0 0.00 0.00 0.00 39 1015.3
20190321005106 50 183 0.0 0.0 0.00 0.00 0.00 38 1015.3
20190321004606 50 183 0.0 0.0 0.00 0.00 0.00 38 1015.3
20190321004106 50 183 0.0 8.0 0.00 0.00 0.00 39 1015.3
20190321003607 50 87 0.0 9.0 0.00 0.00 0.00 38 1015.4
20190321003106 49 182 0.0 0.0 0.00 0.00 0.00 38 1015.4
20190321002606 49 182 0.0 0.0 0.00 0.00 0.00 38 1015.5
20190321002106 49 182 0.0 2.0 0.00 0.00 0.00 39 1015.5
20190321001606 49 182 2.0 2.0 0.00 0.00 0.00 39 1015.5
20190321001106 49 182 0.0 0.0 0.00 0.00 0.00 40 1015.4
20190321000606 49 182 0.0 1.0 0.00 0.00 0.00 41 1015.4
20190321000106 49 182 0.0 3.0 0.00 0.00 0.00 39 1015.7
20190320235606 49 185 0.0 5.0 0.00 0.00 0.00 41 1015.7
20190320235106 49 221 0.0 0.0 0.00 0.00 0.00 42 1015.7
20190320234606 49 221 0.0 0.0 0.00 0.00 0.00 42 1015.8
20190320234106 49 221 0.0 1.0 0.00 0.00 0.00 41 1015.8
20190320233606 50 221 0.0 0.0 0.00 0.00 0.00 41 1015.8
20190320233106 50 221 0.0 0.0 0.00 0.00 0.00 41 1015.9
20190320232606 50 221 0.0 0.0 0.00 0.00 0.00 40 1015.9
20190320232106 50 221 0.0 3.0 0.00 0.00 0.00 41 1015.9
20190320231606 50 221 0.0 0.0 0.00 0.00 0.00 40 1016.0
20190320231106 50 221 0.0 0.0 0.00 0.00 0.00 38 1016.1
20190320230606 51 221 0.0 0.0 0.00 0.00 0.00 38 1016.2
20190320230106 51 221 0.0 0.0 0.00 0.00 0.00 37 1016.4
20190320225606 51 221 0.0 0.0 0.00 0.00 0.00 37 1016.4
20190320225106 51 221 0.0 0.0 0.00 0.00 0.00 37 1016.3
20190320224606 51 221 0.0 0.0 0.00 0.00 0.00 36 1016.2
20190320224106 51 221 0.0 0.0 0.00 0.00 0.00 36 1016.2
20190320223606 51 221 0.0 0.0 0.00 0.00 0.00 35 1016.3
20190320223106 51 221 0.0 0.0 0.00 0.00 0.00 35 1016.4
20190320222606 51 221 0.0 0.0 0.00 0.00 0.00 34 1016.4
20190320222106 51 221 0.0 0.0 0.00 0.00 0.00 35 1016.4
20190320221606 51 221 0.0 0.0 0.00 0.00 0.00 35 1016.4
20190320221106 51 221 0.0 0.0 0.00 0.00 0.00 35 1016.4
20190320220606 51 221 0.0 0.0 0.00 0.00 0.00 34 1016.4
20190320220106 51 221 0.0 0.0 0.00 0.00 0.00 34 1016.4
20190320215606 51 221 0.0 0.0 0.00 0.00 0.00 34 1016.3
20190320215106 51 221 0.0 0.0 0.00 0.00 0.00 32 1016.4
20190320214606 51 221 0.0 0.0 0.00 0.00 0.00 33 1016.5
20190320214106 51 221 0.0 0.0 0.00 0.00 0.00 32 1016.7
20190320213606 51 221 0.0 0.0 0.00 0.00 0.00 32 1016.9
20190320213106 51 221 0.0 5.0 0.00 0.00 0.00 33 1017.1
20190320212606 51 223 0.0 1.0 0.00 0.00 0.00 32 1017.3
20190320212106 51 223 0.0 7.0 0.00 0.00 0.00 32 1017.3
20190320211606 51 220 0.0 5.0 0.00 0.00 0.00 31 1017.4
20190320211106 51 221 2.0 6.0 0.00 0.00 0.00 32 1017.5
20190320210606 52 250 4.0 12.0 0.00 0.00 0.00 32 1017.4
20190320210106 52 234 3.0 7.0 0.00 0.00 0.00 32 1017.5
20190320205606 52 177 5.0 12.0 0.00 0.00 0.00 34 1017.5
20190320205106 51 239 5.0 5.0 0.00 0.00 0.00 33 1017.6
20190320204606 51 240 0.0 7.0 0.00 0.00 0.00 33 1017.7
20190320204106 51 240 0.0 7.0 0.00 0.00 0.00 33 1017.7
20190320203606 52 228 2.0 7.0 0.00 0.00 0.00 33 1017.6
20190320203106 52 207 4.0 11.0 0.00 0.00 0.00 31 1017.6
20190320202606 52 218 0.0 11.0 0.00 0.00 0.00 33 1017.6
20190320202106 52 152 6.0 10.0 0.00 0.00 0.00 33 1017.5
20190320201606 52 146 2.0 11.0 0.00 0.00 0.00 32 1017.6
20190320201106 52 173 2.0 8.0 0.00 0.00 0.00 31 1017.7
20190320200606 53 222 4.0 15.0 0.00 0.00 0.00 28 1017.7
20190320200106 53 178 5.0 12.0 0.00 0.00 0.00 32 1017.6
20190320195606 53 173 3.0 10.0 0.00 0.00 0.00 31 1017.6
20190320195106 53 217 2.0 13.0 0.00 0.00 0.00 31 1017.7
20190320194606 52 209 5.0 11.0 0.00 0.00 0.00 31 1017.9
20190320194106 52 176 4.0 13.0 0.00 0.00 0.00 30 1017.9
20190320193606 52 172 3.0 17.0 0.00 0.00 0.00 29 1018.1
20190320193106 52 155 5.0 12.0 0.00 0.00 0.00 31 1018.0
20190320192606 51 202 7.0 12.0 0.00 0.00 0.00 31 1018.1
20190320192106 52 222 11.0 13.0 0.00 0.00 0.00 31 1018.1
20190320191606 51 198 4.0 10.0 0.00 0.00 0.00 31 1018.2
20190320191106 51 193 5.0 14.0 0.00 0.00 0.00 32 1018.3
20190320190606 51 259 1.0 10.0 0.00 0.00 0.00 32 1018.4
20190320190106 51 156 10.0 10.0 0.00 0.00 0.00 32 1018.5
20190320185606 51 161 8.0 12.0 0.00 0.00 0.00 32 1018.6
20190320185106 51 179 0.0 13.0 0.00 0.00 0.00 31 1018.7
20190320184606 51 192 3.0 13.0 0.00 0.00 0.00 32 1018.8
20190320184106 51 207 6.0 15.0 0.00 0.00 0.00 33 1019.0
20190320183606 51 206 9.0 12.0 0.00 0.00 0.00 34 1019.0
20190320183106 51 159 3.0 13.0 0.00 0.00 0.00 35 1019.2
20190320182606 50 248 2.0 14.0 0.00 0.00 0.00 34 1019.3
20190320182106 50 249 5.0 11.0 0.00 0.00 0.00 33 1019.5
20190320181606 50 261 6.0 12.0 0.00 0.00 0.00 35 1019.6
20190320181106 50 190 3.0 13.0 0.00 0.00 0.00 34 1019.6
20190320180606 50 148 2.0 13.0 0.00 0.00 0.00 33 1019.8
20190320180106 51 155 1.0 10.0 0.00 0.00 0.00 33 1019.8
20190320175606 50 203 6.0 14.0 0.00 0.00 0.00 34 1019.9
20190320175106 50 159 6.0 13.0 0.00 0.00 0.00 34 1019.9
20190320174606 50 161 1.0 14.0 0.00 0.00 0.00 35 1020.1
20190320174106 49 223 11.0 16.0 0.00 0.00 0.00 35 1020.1
20190320173606 49 207 7.0 12.0 0.00 0.00 0.00 32 1020.2
20190320173106 49 164 7.0 11.0 0.00 0.00 0.00 36 1020.3
20190320172606 49 163 5.0 12.0 0.00 0.00 0.00 36 1020.3
20190320172106 49 167 9.0 10.0 0.00 0.00 0.00 40 1020.3
20190320171606 49 165 0.0 13.0 0.00 0.00 0.00 39 1020.4
20190320171106 48 199 5.0 11.0 0.00 0.00 0.00 41 1020.5
20190320170606 48 203 4.0 9.0 0.00 0.00 0.00 41 1020.6
20190320170106 48 204 4.0 7.0 0.00 0.00 0.00 42 1020.6
20190320165606 48 204 3.0 7.0 0.00 0.00 0.00 39 1020.6
20190320165106 48 190 6.0 7.0 0.00 0.00 0.00 43 1020.7
20190320164606 47 188 0.0 12.0 0.00 0.00 0.00 43 1020.7
20190320164106 47 200 5.0 9.0 0.00 0.00 0.00 43 1020.9
20190320163606 47 200 3.0 9.0 0.00 0.00 0.00 43 1021.0
20190320163106 47 201 4.0 9.0 0.00 0.00 0.00 43 1020.9
20190320162606 47 201 5.0 6.0 0.00 0.00 0.00 43 1021.1
20190320162108 46 201 4.0 6.0 0.00 0.00 0.00 44 1021.2
20190320161606 46 201 4.0 10.0 0.00 0.00 0.00 44 1021.3
20190320161106 46 202 4.0 9.0 0.00 0.00 0.00 43 1021.4
20190320160606 46 202 2.0 9.0 0.00 0.00 0.00 43 1021.5
20190320160110 46 202 0.0 11.0 0.00 0.00 0.00 41 1021.4
20190320155606 45 207 0.0 7.0 0.00 0.00 0.00 43 1021.5
20190320155106 45 207 5.0 9.0 0.00 0.00 0.00 44 1021.5
20190320154606 45 207 1.0 9.0 0.00 0.00 0.00 42 1021.6
20190320154106 45 207 7.0 9.0 0.00 0.00 0.00 42 1021.6
20190320153606 45 207 2.0 7.0 0.00 0.00 0.00 42 1021.7
20190320153106 45 207 0.0 9.0 0.00 0.00 0.00 43 1021.8
20190320152606 44 207 3.0 7.0 0.00 0.00 0.00 43 1021.9
20190320152106 44 207 1.0 7.0 0.00 0.00 0.00 43 1021.8
20190320151606 44 207 0.0 5.0 0.00 0.00 0.00 44 1021.8
20190320151106 44 207 4.0 5.0 0.00 0.00 0.00 46 1021.9
20190320150606 43 207 3.0 10.0 0.00 0.00 0.00 44 1022.0
20190320150106 43 207 0.0 5.0 0.00 0.00 0.00 51 1022.1
20190320145606 42 207 0.0 6.0 0.00 0.00 0.00 50 1022.2
20190320145106 42 207 1.0 4.0 0.00 0.00 0.00 52 1022.2
20190320144606 42 207 0.0 6.0 0.00 0.00 0.00 48 1022.3
20190320140606 41 213 4.0 4.0 0.00 0.00 0.00 48 1022.6
20190320140106 40 213 0.0 7.0 0.00 0.00 0.00 48 1022.5
20190320135605 40 215 0.0 6.0 0.00 0.00 0.00 48 1022.5
20190320135105 39 215 0.0 5.0 0.00 0.00 0.00 49 1022.6
20190320134605 39 215 5.0 5.0 0.00 0.00 0.00 50 1022.6
20190320134105 38 215 0.0 2.0 0.00 0.00 0.00 51 1022.8
20190320133606 38 215 0.0 4.0 0.00 0.00 0.00 50 1022.8
20190320133106 38 215 0.0 0.0 0.00 0.00 0.00 51 1022.8
20190320132606 38 215 0.0 0.0 0.00 0.00 0.00 51 1022.9
20190320132106 37 215 0.0 0.0 0.00 0.00 0.00 50 1023.0
20190320131606 37 215 0.0 1.0 0.00 0.00 0.00 52 1022.9
20190320131106 37 215 0.0 3.0 0.00 0.00 0.00 52 1022.9
20190320130606 36 215 0.0 3.0 0.00 0.00 0.00 53 1023.0
20190320130106 36 216 0.0 4.0 0.00 0.00 0.00 55 1023.0
20190320125606 35 216 0.0 0.0 0.00 0.00 0.00 57 1023.0
20190320125105 34 216 0.0 0.0 0.00 0.00 0.00 58 1023.1
20190320124605 34 216 0.0 2.0 0.00 0.00 0.00 59 1023.2
20190320124106 33 216 0.0 1.0 0.00 0.00 0.00 60 1023.2
20190320123605 33 216 0.0 0.0 0.00 0.00 0.00 60 1023.2
20190320123106 33 216 0.0 0.0 0.00 0.00 0.00 61 1023.2
20190320122606 32 216 0.0 0.0 0.00 0.00 0.00 61 1023.4
20190320122106 32 216 0.0 0.0 0.00 0.00 0.00 61 1023.3
20190320121606 32 216 0.0 0.0 0.00 0.00 0.00 61 1023.3
20190320121106 32 216 0.0 0.0 0.00 0.00 0.00 62 1023.4
20190320120605 32 216 0.0 0.0 0.00 0.00 0.00 62 1023.4
20190320120105 31 216 0.0 0.0 0.00 0.00 0.00 63 1023.0
20190320115605 31 216 0.0 0.0 0.00 0.00 0.00 64 1023.0
20190320115106 30 216 0.0 0.0 0.00 0.00 0.00 66 1023.1
20190320114606 29 216 0.0 0.0 0.00 0.00 0.00 68 1023.1
20190320114105 29 216 0.0 0.0 0.00 0.00 0.00 69 1023.1
20190320113605 28 216 0.0 0.0 0.00 0.00 0.00 70 1023.2
20190320113106 28 216 0.0 0.0 0.00 0.00 0.00 71 1023.2
20190320112605 28 216 0.0 0.0 0.00 0.00 0.00 71 1023.3
20190320112106 28 216 0.0 0.0 0.00 0.00 0.00 72 1023.2
20190320111606 28 216 0.0 0.0 0.00 0.00 0.00 72 1023.3
20190320111106 28 216 0.0 0.0 0.00 0.00 0.00 72 1023.2
20190320110605 28 216 0.0 0.0 0.00 0.00 0.00 72 1023.3
20190320110105 28 216 0.0 0.0 0.00 0.00 0.00 72 1022.9
20190320105605 28 216 0.0 0.0 0.00 0.00 0.00 72 1023.0
20190320105106 28 216 0.0 0.0 0.00 0.00 0.00 71 1023.0
20190320104606 28 216 0.0 0.0 0.00 0.00 0.00 72 1023.0
20190320104105 28 216 0.0 0.0 0.00 0.00 0.00 72 1023.0
20190320103606 28 216 0.0 0.0 0.00 0.00 0.00 72 1023.0
20190320103105 28 216 0.0 0.0 0.00 0.00 0.00 72 1023.0
20190320102606 28 216 0.0 0.0 0.00 0.00 0.00 72 1023.0
20190320102106 28 216 0.0 0.0 0.00 0.00 0.00 72 1023.0
20190320101606 28 216 0.0 0.0 0.00 0.00 0.00 72 1023.1
20190320101105 28 216 0.0 0.0 0.00 0.00 0.00 72 1023.1
20190320100606 28 216 0.0 0.0 0.00 0.00 0.00 72 1023.0
20190320100106 28 216 0.0 0.0 0.00 0.00 0.00 72 1023.1
20190320095606 28 216 0.0 0.0 0.00 0.00 0.00 73 1023.1
20190320095105 28 216 0.0 0.0 0.00 0.00 0.00 73 1023.0
20190320094606 28 216 0.0 0.0 0.00 0.00 0.00 73 1023.1
20190320094106 28 216 0.0 0.0 0.00 0.00 0.00 73 1023.1
20190320093606 28 216 0.0 0.0 0.00 0.00 0.00 73 1023.2
20190320093106 28 216 0.0 0.0 0.00 0.00 0.00 74 1023.2
20190320092605 28 216 0.0 0.0 0.00 0.00 0.00 74 1023.3
20190320092105 28 216 0.0 0.0 0.00 0.00 0.00 75 1023.3
20190320091605 28 216 0.0 0.0 0.00 0.00 0.00 75 1023.3
20190320091105 28 216 0.0 0.0 0.00 0.00 0.00 76 1023.4
20190320090605 28 216 0.0 0.0 0.00 0.00 0.00 76 1023.4
20190320090106 28 216 0.0 0.0 0.00 0.00 0.00 76 1023.4
20190320085605 28 216 0.0 0.0 0.00 0.00 0.00 76 1023.5
20190320085106 28 216 0.0 0.0 0.00 0.00 0.00 76 1023.6
20190320084605 28 216 0.0 0.0 0.00 0.00 0.00 76 1023.6
20190320084105 28 216 0.0 0.0 0.00 0.00 0.00 77 1023.7
20190320083605 28 216 0.0 0.0 0.00 0.00 0.00 77 1023.6
20190320083105 28 216 0.0 0.0 0.00 0.00 0.00 78 1023.8
20190320082605 28 216 0.0 0.0 0.00 0.00 0.00 78 1023.9
20190320082106 28 216 0.0 0.0 0.00 0.00 0.00 78 1024.0
20190320081605 28 216 0.0 0.0 0.00 0.00 0.00 78 1024.0
20190320081106 28 216 0.0 0.0 0.00 0.00 0.00 79 1024.1
20190320080605 28 216 0.0 0.0 0.00 0.00 0.00 79 1024.2
20190320080105 28 216 0.0 0.0 0.00 0.00 0.00 80 1024.2
20190320075606 28 216 0.0 0.0 0.00 0.00 0.00 80 1024.4
20190320075106 28 216 0.0 0.0 0.00 0.00 0.00 80 1024.6
20190320074605 28 216 0.0 0.0 0.00 0.00 0.00 80 1024.6
20190320074106 28 216 0.0 0.0 0.00 0.00 0.00 81 1024.6
20190320073605 28 216 0.0 0.0 0.00 0.00 0.00 81 1024.6
20190320073106 28 216 0.0 0.0 0.00 0.00 0.00 81 1024.7